Terminal Aerodrome Forecast
Issued by NWS Blacksburg, VA

Home | Current Version | Previous Version | Text Only | Print | Product List | Glossary On
Versions: 1 2 3 4 5 6 7 8 9 10 11 12 13 14 15 16 17 18 19 20 21 22 23 24 25 26 27 28 29 30 31 32 33 34 35 36
000
FTUS41 KRNK 232320
TAFDAN
TAF
KDAN 232320Z 2400/2424 03012G24KT P6SM BKN014 OVC019
      TEMPO 2400/2401 OVC009
     FM240600 33008KT P6SM BKN070
     FM241200 31008KT P6SM SCT050
     FM241600 31013KT P6SM SCT250
     FM242300 29008KT P6SM FEW250=

USA.gov is the U.S. government's official web portal to all federal, state and local government web resources and services.